Vorticity
5 5 4 4 4 4 4 6 10 13 13 12 13 15 17 16 14 12 10 11 11 12 13 12 12 12 12 14 13 12 13 14 17 20 24 25 23 20 15 13 12 9 9 11 13 14 17 17 14 15 15 18 17 18 18 13 12 10 8 7 6 9 11 8 10 12 8 8 9 7 6 4 5 6 5 5 5 6 7 6 6 5 5 5 7 7 7 7
5 5 4 4 5 5 4 6 9 12 13 11 11 12 15 17 19 20 22 23 22 23 25 25 23 21 17 14 13 13 15 19 21 21 21 24 26 23 21 21 21 19 17 18 19 17 19 18 16 14 11 13 13 11 12 10 9 8 8 7 5 5 6 4 4 6 5 5 5 5 4 3 4 5 4 4 4 6 6 6 6 5 5 4 4 5 5 6
6 5 5 5 5 6 6 6 6 8 9 9 10 10 11 12 13 14 15 16 14 13 15 18 18 18 17 17 17 17 17 15 13 13 10 9 10 9 10 11 11 12 12 12 12 11 10 8 6 7 5 5 6 4 4 6 6 5 5 4 4 4 4 4 4 4 4 4 5 6 5 4 5 6 5 4 6 7 5 5 5 6 6 6 6 7 7 7
6 6 5 6 6 6 6 6 5 4 4 5 7 7 7 6 6 5 5 5 3 2 3 3 4 4 5 6 7 6 5 5 3 3 2 2 3 3 2 3 3 4 4 4 4 4 4 5 4 4 4 3 4 4 4 6 6 5 5 5 5 5 5 6 5 4 5 4 5 6 6 5 5 6 6 6 7 7 6 7 8 8 8 8 7 8 9 9
7 7 7 7 7 7 6 6 5 4 3 4 6 5 6 6 6 5 5 4 3 4 5 3 3 4 4 4 4 3 3 3 2 4 4 4 4 4 3 4 4 4 5 6 6 7 6 6 6 5 7 5 5 6 7 7 6 4 5 6 7 6 6 5 5 6 6 7 7 7 8 8 8 10 9 9 10 9 9 10 9 8 8 7 6 7 7 7
7 8 8 9 8 8 7 7 6 5 5 5 6 5 5 7 7 7 7 7 7 7 7 7 7 7 7 7 7 6 7 6 4 5 5 5 6 5 5 5 5 5 5 6 6 6 6 6 6 6 7 5 6 7 7 6 4 4 7 9 8 7 7 8 9 10 9 10 9 8 9 9 9 9 7 7 8 7 7 7 7 7 7 7 7 8 8 8
8 9 9 10 9 9 9 8 7 6 6 6 7 6 5 6 6 7 7 6 6 6 6 5 5 5 4 4 5 4 5 6 4 5 5 5 5 5 5 5 6 6 5 6 6 5 5 5 5 6 7 6 8 10 10 9 8 9 12 11 9 9 10 10 10 8 7 7 6 6 5 5 6 5 5 6 7 7 6 7 7 8 7 7 7 6 6 6
9 10 10 10 10 10 10 9 8 7 7 7 8 7 7 6 5 5 4 4 4 4 4 4 4 4 4 4 5 5 4 5 4 4 5 5 7 7 8 9 9 10 9 10 10 10 10 10 10 11 11 11 11 11 10 9 9 11 9 7 7 7 6 5 5 4 5 5 5 6 6 7 7 7 8 8 7 7 6 5 6 6 5 6 5 5 5 4
8 10 10 11 11 11 11 10 9 8 7 6 7 8 7 5 4 4 3 4 4 4 5 5 6 6 7 7 7 8 7 8 8 8 7 6 8 9 10 12 13 13 13 13 13 12 12 11 10 11 9 8 8 6 5 5 6 6 5 4 5 6 6 6 6 7 7 7 7 7 6 7 6 6 7 7 5 6 6 5 5 5 5 6 5 6 7 7
8 9 10 12 12 12 12 12 9 8 7 6 7 6 6 5 4 4 3 4 5 5 6 6 8 7 8 9 8 10 9 9 11 12 12 11 10 9 8 7 6 8 7 7 7 7 7 6 7 7 6 7 6 5 6 7 7 7 8 9 9 8 8 7 7 6 6 6 5 5 5 4 5 6 6 6 7 8 8 8 6 6 6 6 6 7 8 9
6 8 11 14 13 12 12 12 9 8 7 6 7 6 6 5 4 4 4 5 5 5 7 7 7 7 8 8 9 10 10 10 11 11 11 11 10 9 9 8 8 8 7 6 7 7 6 6 7 7 7 8 7 7 8 8 7 7 7 6 5 5 4 4 5 5 5 6 6 5 5 5 7 8 7 7 9 8 7 8 8 6 6 7 8 9 9 9
4 6 11 14 13 12 11 11 9 8 9 8 9 8 7 6 5 5 5 5 6 6 7 7 8 8 9 9 9 9 9 9 9 9 10 10 11 12 12 12 12 12 11 11 10 9 7 6 6 6 6 6 5 5 5 5 5 4 4 4 4 4 5 7 7 6 6 6 7 7 6 7 8 9 9 8 8 8 8 9 9 10 10 11 11 10 10 10
3 5 9 15 15 11 10 10 9 9 10 10 9 8 7 6 6 5 6 7 7 8 8 9 9 9 9 9 9 9 11 12 12 13 13 12 11 9 7 6 6 6 7 7 7 6 5 5 5 5 5 6 6 6 6 6 7 7 7 6 7 7 8 9 9 9 9 9 9 10 9 9 10 10 11 10 10 9 10 10 11 12 12 12 11 11 11 10
3 4 8 15 15 9 9 10 9 10 10 10 9 7 6 6 6 6 7 8 8 9 9 9 9 8 11 11 12 13 13 12 11 10 8 7 5 3 3 2 3 4 4 5 6 5 5 5 5 6 7 7 7 7 8 8 8 8 8 9 9 9 9 9 10 11 12 12 12 12 10 10 11 12 12 11 10 11 10 10 10 11 10 10 10 10 10 10
2 3 8 16 15 7 9 10 9 11 9 8 7 6 7 6 6 7 8 9 9 10 8 10 11 12 14 12 11 10 7 6 5 4 3 3 4 4 4 4 4 4 5 6 5 5 6 6 7 7 7 7 7 8 7 9 9 8 8 10 10 10 10 9 10 10 11 11 10 9 9 10 11 11 9 8 9 9 9 9 10 10 9 10 10 10 10 10
0 4 9 16 15 7 9 10 9 9 6 7 6 6 7 6 8 9 10 10 9 10 11 14 13 11 10 7 6 4 1 3 3 3 4 4 4 4 4 5 5 5 6 6 7 8 8 8 9 9 8 9 10 9 9 10 10 9 10 10 10 10 10 9 8 9 9 8 8 8 8 9 10 9 8 8 8 7 9 10 9 9 9 9 10 9 9 8
-0 5 10 16 15 7 8 8 7 7 6 7 7 7 8 8 10 9 9 9 11 14 15 12 7 5 5 5 6 3 2 4 4 4 4 4 5 5 6 6 6 6 7 8 8 9 9 9 10 10 11 11 11 10 11 11 9 9 9 8 8 8 8 8 6 6 6 6 7 8 8 9 10 9 8 8 8 8 9 9 8 8 8 8 8 7 8 8
1 7 11 17 14 7 7 6 6 6 7 8 8 10 9 9 8 7 11 14 14 14 9 4 2 2 4 5 5 3 4 5 5 6 5 6 6 6 7 7 8 8 9 10 9 10 11 12 12 11 11 11 11 10 10 10 8 9 8 7 7 7 9 9 8 7 7 6 7 8 8 9 11 10 9 9 9 10 10 9 10 11 11 10 9 10 12 13
2 8 11 16 13 7 6 5 6 7 9 11 10 10 8 7 9 12 16 14 10 6 2 2 2 2 4 5 4 4 7 6 6 7 6 7 7 7 8 8 9 8 9 11 11 11 11 12 11 10 10 10 9 9 9 8 8 8 8 8 8 7 9 9 10 9 8 8 9 11 11 12 14 13 13 13 14 15 16 15 14 15 15 15 15 14 15 15
4 9 11 15 11 7 7 5 7 9 12 11 9 8 7 10 14 15 12 7 3 1 2 4 2 3 6 6 6 7 7 6 6 7 7 8 7 9 10 9 10 10 11 11 11 11 11 11 10 9 9 8 7 7 7 8 8 9 9 10 10 10 11 11 11 12 12 13 14 16 19 18 17 16 16 16 16 16 17 17 15 14 13 13 14 13 11 11
6 9 12 14 10 7 6 5 9 12 12 9 7 8 11 14 13 9 5 3 1 -1 2 4 3 5 7 7 8 8 7 7 7 7 8 9 9 10 10 10 11 12 12 12 11 11 11 11 9 9 9 8 9 10 10 12 13 14 15 16 17 17 18 18 18 18 18 20 20 19 19 20 17 15 15 14 12 11 8 9 9 9 8 7 8 7 6 7
7 11 13 13 10 6 5 8 12 12 8 7 8 12 14 11 8 6 5 4 1 -0 3 5 5 7 7 8 8 7 8 8 8 8 9 10 10 12 13 13 14 14 14 14 14 13 13 14 13 13 14 14 15 15 17 17 16 18 17 18 19 19 20 19 17 17 16 17 17 15 13 16 15 11 10 9 8 7 4 4 5 3 4 4 5 5 6 7
10 12 14 13 8 5 7 11 12 9 6 9 12 14 11 6 5 5 3 3 1 1 4 5 7 8 8 9 8 8 9 8 8 9 10 11 12 13 14 14 16 17 18 18 18 18 17 18 17 17 17 16 16 15 15 13 12 13 11 12 13 12 12 12 11 11 11 9 9 8 7 9 12 10 9 7 5 5 3 3 3 2 2 3 3 5 6 7
11 13 14 10 6 7 11 11 8 7 8 12 14 11 6 4 4 2 1 3 2 3 6 7 8 9 8 8 8 9 8 7 9 10 10 12 12 13 13 14 14 15 17 16 16 16 15 15 14 14 13 12 11 10 10 9 8 9 8 9 8 7 7 8 7 6 6 7 7 7 4 4 9 10 7 4 4 5 4 4 3 3 4 5 5 7 9 10
11 15 12 7 7 11 12 9 7 8 11 14 13 7 4 4 1 1 3 3 4 6 8 8 9 9 8 8 8 7 7 8 10 10 10 11 11 11 12 12 12 12 12 11 12 12 12 11 10 10 10 10 9 8 8 7 6 7 8 7 6 6 6 6 7 5 4 6 8 8 5 2 6 9 5 5 9 8 6 6 6 6 7 8 9 9 10 11
14 15 9 7 11 12 9 7 8 10 14 13 8 5 5 2 -1 1 4 4 6 8 8 8 9 8 7 7 7 7 8 9 9 9 9 10 10 10 10 11 12 11 11 11 11 10 10 10 9 9 9 9 8 8 8 7 7 8 7 6 6 6 7 6 7 7 5 6 7 9 9 3 3 10 10 9 11 9 8 10 8 9 9 10 11 10 10 11
16 12 7 11 13 9 7 8 10 13 14 9 5 6 6 2 -0 2 4 6 7 9 9 9 8 7 6 7 8 8 7 8 9 9 9 9 10 10 10 11 10 10 11 12 12 11 11 11 10 10 10 10 9 9 9 9 9 9 8 9 9 7 8 8 8 9 8 7 10 12 13 9 9 13 12 10 11 10 9 9 8 9 10 9 10 10 9 9
14 7 9 13 9 6 8 11 13 14 11 6 4 3 2 2 2 1 5 8 8 8 10 9 7 5 6 7 8 7 7 8 9 9 10 11 10 10 10 10 9 10 11 11 11 11 12 12 11 12 11 10 11 11 11 11 11 11 11 11 10 9 10 10 10 11 10 10 12 11 11 12 13 14 11 8 9 8 7 7 8 8 8 8 8 7 7 8
11 6 12 11 6 7 11 12 13 11 7 6 5 1 -1 3 3 2 8 9 7 10 10 7 6 5 6 7 8 8 7 10 10 10 11 11 10 10 10 10 10 10 11 11 10 10 10 10 10 10 10 11 11 11 11 11 11 11 11 11 12 11 11 11 12 11 13 15 13 11 11 12 14 15 13 10 7 8 8 9 10 8 7 8 8 7 6 7
8 9 12 7 6 11 12 11 11 8 6 6 5 1 1 2 2 6 10 7 7 10 8 5 5 5 7 8 8 8 9 11 10 10 10 9 10 10 8 9 9 9 11 10 8 9 9 9 9 8 9 9 8 8 10 9 9 10 9 10 10 9 9 11 12 11 13 14 12 11 12 15 18 18 18 17 12 10 11 11 11 10 9 9 8 9 12 14
6 12 10 5 10 12 10 10 8 6 6 6 4 1 2 2 3 8 9 7 10 9 5 4 5 6 8 8 7 9 10 10 9 9 8 7 8 8 7 8 7 7 8 8 7 8 8 8 7 7 7 7 6 7 7 5 7 8 6 6 6 5 6 7 8 8 9 9 9 9 9 13 16 15 17 19 16 14 15 14 11 9 11 12 12 13 15 14
8 12 7 7 12 10 10 10 6 6 7 6 3 0 1 3 6 8 8 10 10 6 3 4 5 7 8 7 8 9 9 9 8 8 7 6 6 5 5 5 6 6 6 6 6 5 6 7 5 6 7 6 6 6 6 6 6 6 6 5 5 4 4 4 5 6 5 5 5 5 7 8 9 12 15 17 17 13 10 10 10 10 14 15 15 15 12 8
11 10 6 10 12 10 10 8 6 7 6 5 4 1 1 4 6 8 9 9 6 4 4 5 6 8 7 7 8 8 7 7 6 5 5 5 5 4 5 4 3 5 4 5 6 4 6 7 5 5 6 6 5 4 5 5 4 6 6 4 5 5 3 3 4 4 3 4 4 5 7 5 6 11 12 10 12 11 8 10 11 10 11 11 12 12 8 4
11 8 8 12 11 9 9 6 7 7 5 5 4 1 2 6 7 9 11 7 3 5 5 5 8 7 7 8 7 6 6 5 4 4 4 4 4 4 5 5 3 3 4 4 4 4 6 6 4 5 6 5 4 3 4 4 4 5 4 4 6 4 2 3 4 3 2 4 5 4 7 5 5 12 10 5 10 13 12 13 13 10 9 8 7 4 1 -1
9 8 11 11 9 8 7 6 7 7 6 5 3 2 4 6 7 10 10 5 4 5 4 7 9 6 7 8 5 5 5 4 5 4 3 4 5 4 4 5 3 3 5 4 3 4 5 5 5 5 6 4 4 4 4 4 5 3 2 5 5 2 3 4 3 2 2 4 5 5 7 4 5 14 10 3 8 10 5 5 11 13 11 8 5 4 3 5
8 9 11 10 8 7 6 7 7 6 5 4 3 4 4 6 9 10 8 5 4 4 5 9 8 5 7 6 5 5 4 4 3 2 3 3 4 5 3 4 4 3 6 4 3 4 3 4 5 6 6 4 4 5 4 5 5 2 3 5 3 3 4 3 2 3 2 2 3 4 5 2 7 16 11 6 12 11 3 1 6 10 10 7 6 7 7 8
9 11 10 8 7 7 7 8 7 6 5 4 3 4 4 8 10 8 7 5 4 5 7 9 6 5 8 6 5 4 2 4 3 1 3 3 4 5 1 3 4 3 5 4 4 4 2 3 5 6 6 4 5 6 5 5 3 2 4 4 3 5 3 3 3 2 1 1 3 5 4 5 9 10 8 13 15 8 4 7 6 5 5 5 5 5 5 5
11 11 9 7 7 7 8 8 7 5 5 4 4 4 6 9 9 7 7 4 4 6 7 7 6 5 7 6 5 3 2 4 3 2 2 1 4 3 -0 3 3 1 4 4 4 4 3 3 4 6 6 4 7 7 5 4 3 4 5 2 4 5 4 5 1 -0 3 1 2 3 3 15 26 20 14 13 6 -1 3 9 7 4 3 3 4 5 4 4
11 9 8 7 7 7 7 7 6 5 5 5 5 4 6 10 10 7 6 4 5 6 6 7 6 5 6 5 4 3 1 1 1 2 1 1 3 1 0 2 0 1 4 4 4 4 3 2 2 5 6 5 8 7 5 6 5 5 4 4 6 4 3 3 -1 3 3 -2 2 0 2 25 29 11 7 5 -3 -1 5 6 4 4 3 3 4 5 4 5
9 9 7 6 7 7 6 7 6 6 7 6 4 5 8 11 10 6 5 5 5 5 7 8 5 5 5 4 4 4 1 0 2 1 1 2 2 0 1 1 -1 2 3 4 6 4 2 2 2 4 6 7 9 6 6 8 6 6 6 5 6 4 3 2 1 5 1 -0 4 -7 2 29 9 -21 -7 4 -1 2 6 4 3 4 3 1 2 4 3 5
9 8 6 6 7 7 7 7 7 7 7 6 5 6 8 10 9 6 5 5 5 6 7 6 5 5 4 3 4 3 1 2 3 1 1 2 1 0 2 1 -1 1 2 4 6 4 3 2 2 5 6 7 9 7 6 8 8 9 7 5 5 3 4 4 4 6 1 3 3 -8 5 22 -7 -25 -4 3 0 7 8 5 4 4 3 0 1 3 2 4
8 6 6 7 7 7 8 7 6 6 6 6 6 6 8 10 10 7 5 4 5 6 5 5 6 3 3 4 3 1 1 2 2 2 2 1 1 2 2 -1 -1 0 2 4 4 5 4 1 1 5 5 7 10 8 7 8 8 8 6 6 6 4 6 5 4 6 3 3 3 -1 1 -6 -24 -15 4 3 7 14 9 5 4 3 3 0 1 3 2 4
8 6 8 8 8 9 8 6 6 7 6 7 7 7 10 13 10 5 5 4 5 6 4 4 6 3 3 5 2 1 1 0 1 3 2 1 3 4 1 -2 -1 1 1 3 4 4 3 0 2 2 2 7 9 7 8 9 6 4 5 8 7 6 8 4 3 7 4 2 5 2 -4 -13 -16 -1 9 9 15 14 6 4 3 3 4 1 2 3 2 5
7 7 8 8 7 7 7 7 7 7 6 7 7 8 10 12 8 5 6 5 4 6 5 4 5 4 4 4 2 2 -0 -3 0 2 1 2 3 2 0 -1 -0 1 2 3 3 3 2 2 4 2 -0 4 6 7 11 8 4 4 6 7 6 7 7 4 7 8 -2 1 11 7 -1 -3 0 8 11 12 13 9 5 4 2 3 3 1 3 4 4 6
8 7 6 6 7 7 8 8 7 7 8 8 9 10 9 9 6 4 5 5 3 4 4 5 5 4 5 5 3 1 -1 -2 -1 0 2 4 2 1 0 -0 1 2 3 3 2 3 3 1 4 5 2 1 3 8 10 5 4 5 6 7 6 6 6 5 8 5 -4 2 13 8 0 1 4 9 12 12 11 9 7 5 2 1 0 3 7 7 7 8
6 6 7 7 8 8 8 8 6 6 7 8 9 10 8 7 6 4 4 5 3 3 5 5 4 3 4 4 1 1 2 1 0 2 5 4 0 1 1 1 2 2 3 3 3 4 2 -1 5 7 2 1 5 9 9 6 5 5 5 7 7 6 8 7 5 3 3 8 7 1 4 7 5 7 9 10 9 7 5 3 -0 -1 2 6 9 7 8 8
6 7 8 8 7 8 8 7 6 6 6 8 9 10 8 6 6 4 4 5 4 3 4 4 4 5 3 0 -1 1 2 2 3 4 4 1 0 2 2 2 3 2 3 3 3 5 1 -3 6 8 1 3 8 9 9 7 5 6 6 6 7 8 7 6 6 7 9 7 0 1 8 7 4 8 9 6 3 0 2 3 2 4 8 9 7 8 9 10
8 9 8 8 8 8 8 7 6 7 8 10 10 9 8 6 6 5 4 5 5 2 1 4 6 4 1 0 1 2 3 3 4 3 1 0 3 2 1 3 3 1 3 3 4 7 1 -3 7 10 1 3 10 11 11 8 4 5 7 8 9 8 7 8 10 10 6 0 1 9 8 -0 3 12 8 2 3 4 5 6 6 8 9 8 9 11 13 13
8 8 7 8 7 7 7 6 5 7 8 9 9 9 8 8 7 6 5 5 5 4 2 4 5 3 2 3 1 2 5 4 2 3 3 2 3 3 2 2 2 2 3 3 4 6 3 0 8 11 2 0 11 14 9 6 4 4 8 11 9 7 9 12 11 9 6 5 8 12 4 -2 8 12 2 0 6 6 6 9 10 11 12 13 15 15 14 12
7 7 6 7 6 6 7 7 6 7 7 7 7 7 8 8 7 6 7 5 5 5 4 4 5 3 4 4 2 4 6 3 2 4 4 2 2 3 2 1 3 3 2 4 5 5 5 3 7 13 4 -1 13 16 6 6 7 3 8 12 10 11 13 11 10 9 8 5 4 3 0 2 10 6 -1 5 11 10 12 14 13 13 14 14 13 12 11 10
6 6 6 6 6 6 7 7 7 7 7 6 6 6 6 7 6 5 7 7 6 5 4 4 4 3 4 5 3 4 4 2 3 4 2 2 2 3 3 2 4 4 3 6 6 6 8 7 10 16 6 -0 13 14 6 11 9 1 9 15 12 11 10 7 8 6 0 -2 -1 2 5 7 7 4 7 14 14 12 13 12 12 14 14 12 13 13 14 13
5 6 7 7 6 6 6 7 6 6 6 5 5 6 5 5 4 3 4 6 6 4 3 3 3 2 4 5 3 3 4 2 3 3 2 3 3 3 4 4 4 5 6 9 8 8 10 9 12 16 6 4 16 16 12 14 4 0 14 17 9 7 6 4 4 -1 -3 2 6 7 7 6 5 8 12 12 9 9 11 13 14 14 12 14 17 16 14 10
Height
5779 5779 5780 5780 5780 5781 5781 5781 5781 5781 5781 5781 5781 5782 5782 5783 5783 5784 5784 5784 5784 5784 5783 5783 5783 5783 5783 5782 5782 5782 5783 5783 5782 5781 5781 5782 5782 5782 5782 5782 5781 5781 5780 5780 5780 5779 5779 5779 5778 5778 5778 5778 5778 5777 5776 5776 5776 5775 5775 5775 5775 5775 5775 5774 5774 5774 5774 5774 5774 5773 5773 5773 5773 5772 5772 5772 5772 5772 5771 5771 5770 5770 5769 5768 5767 5767 5767 5767
5779 5779 5779 5780 5780 5781 5781 5781 5781 5781 5781 5781 5781 5781 5782 5782 5783 5783 5783 5783 5783 5783 5783 5782 5782 5782 5782 5781 5781 5781 5781 5781 5781 5781 5780 5780 5780 5780 5780 5780 5779 5779 5779 5778 5778 5778 5777 5777 5776 5776 5777 5776 5776 5776 5775 5774 5774 5773 5773 5773 5773 5773 5772 5771 5771 5771 5771 5771 5771 5770 5770 5770 5770 5769 5768 5769 5769 5769 5768 5768 5767 5766 5765 5765 5764 5764 5763 5763
5779 5779 5779 5780 5780 5781 5781 5781 5781 5781 5781 5781 5781 5781 5782 5782 5782 5782 5782 5782 5782 5782 5782 5782 5782 5781 5781 5780 5780 5780 5780 5780 5780 5780 5779 5779 5779 5779 5778 5778 5778 5777 5777 5777 5777 5776 5776 5775 5775 5775 5775 5775 5775 5774 5774 5773 5772 5771 5771 5770 5771 5771 5770 5768 5767 5767 5767 5768 5768 5768 5767 5767 5766 5765 5764 5765 5766 5765 5764 5764 5764 5763 5762 5761 5761 5760 5760 5759
5778 5778 5779 5779 5780 5780 5781 5780 5780 5781 5781 5781 5782 5782 5782 5782 5783 5783 5782 5782 5782 5782 5782 5782 5782 5781 5781 5780 5780 5780 5780 5780 5779 5779 5778 5778 5778 5778 5777 5777 5776 5776 5776 5776 5775 5775 5774 5774 5773 5773 5773 5772 5773 5772 5771 5771 5770 5768 5769 5768 5768 5768 5767 5766 5764 5764 5764 5764 5764 5764 5764 5763 5763 5762 5761 5761 5762 5761 5760 5760 5760 5759 5758 5757 5757 5756 5756 5755
5778 5778 5778 5779 5779 5780 5780 5780 5780 5781 5781 5782 5782 5782 5782 5782 5782 5782 5782 5782 5782 5782 5781 5781 5781 5781 5781 5780 5780 5780 5779 5779 5779 5778 5778 5777 5777 5776 5776 5775 5775 5775 5774 5774 5773 5773 5772 5772 5771 5771 5770 5770 5770 5771 5770 5768 5767 5765 5766 5767 5765 5764 5764 5763 5762 5761 5760 5760 5760 5760 5760 5759 5759 5759 5758 5757 5758 5757 5757 5757 5756 5755 5754 5753 5753 5753 5752 5752
5777 5778 5778 5778 5779 5779 5780 5780 5781 5781 5782 5782 5782 5782 5782 5782 5782 5781 5781 5781 5781 5781 5781 5780 5780 5780 5780 5780 5780 5779 5779 5778 5778 5778 5777 5777 5776 5775 5775 5774 5774 5773 5772 5772 5771 5771 5770 5770 5769 5769 5769 5768 5767 5768 5768 5766 5764 5762 5763 5764 5763 5761 5760 5760 5760 5758 5757 5756 5756 5756 5756 5756 5755 5755 5754 5754 5754 5754 5754 5754 5752 5751 5750 5750 5749 5749 5748 5748
5777 5778 5778 5778 5778 5779 5779 5780 5780 5781 5781 5782 5782 5782 5782 5782 5781 5781 5781 5780 5780 5780 5780 5780 5780 5779 5779 5779 5779 5778 5778 5777 5777 5777 5776 5776 5775 5774 5774 5773 5772 5772 5771 5770 5770 5769 5768 5768 5767 5767 5767 5766 5765 5764 5764 5763 5762 5761 5761 5761 5760 5758 5757 5757 5757 5756 5755 5753 5753 5752 5752 5752 5752 5751 5750 5750 5750 5750 5750 5750 5749 5748 5747 5746 5745 5745 5744 5744
5777 5778 5778 5778 5779 5779 5779 5779 5780 5781 5781 5781 5781 5781 5782 5781 5781 5781 5780 5780 5780 5780 5780 5780 5779 5779 5779 5778 5778 5777 5777 5776 5776 5775 5775 5774 5774 5773 5772 5772 5771 5770 5769 5768 5768 5767 5766 5766 5765 5765 5764 5763 5762 5761 5761 5760 5759 5759 5759 5758 5757 5756 5755 5754 5754 5753 5752 5751 5750 5750 5749 5749 5749 5748 5748 5747 5746 5745 5745 5746 5746 5745 5744 5742 5741 5740 5740 5739
5778 5778 5779 5779 5779 5779 5779 5779 5780 5780 5781 5781 5781 5781 5781 5781 5781 5780 5780 5780 5780 5780 5780 5779 5779 5779 5778 5778 5777 5777 5776 5776 5775 5774 5773 5773 5772 5771 5770 5770 5769 5768 5767 5766 5766 5765 5765 5764 5763 5763 5762 5761 5760 5759 5758 5757 5757 5757 5756 5756 5755 5754 5753 5752 5751 5750 5749 5748 5747 5747 5746 5746 5745 5745 5745 5743 5742 5742 5741 5741 5741 5741 5740 5738 5737 5736 5736 5735
5779 5779 5779 5779 5779 5779 5779 5779 5780 5780 5780 5780 5780 5781 5781 5781 5780 5779 5779 5780 5780 5779 5779 5779 5778 5778 5777 5777 5776 5776 5775 5775 5774 5773 5772 5771 5770 5770 5769 5768 5767 5766 5765 5764 5764 5763 5763 5762 5761 5761 5759 5759 5758 5757 5756 5755 5755 5754 5754 5753 5753 5752 5750 5749 5748 5747 5746 5745 5744 5744 5743 5743 5742 5742 5741 5739 5738 5738 5736 5736 5736 5735 5735 5734 5733 5732 5731 5730
5779 5779 5779 5779 5779 5779 5779 5779 5779 5779 5779 5779 5780 5780 5780 5780 5779 5779 5779 5779 5779 5778 5778 5778 5777 5777 5777 5776 5775 5775 5774 5774 5773 5772 5771 5770 5770 5769 5768 5767 5766 5765 5764 5763 5762 5762 5761 5760 5759 5758 5757 5757 5756 5754 5754 5753 5752 5751 5750 5750 5749 5749 5747 5746 5745 5744 5743 5742 5741 5740 5739 5739 5738 5738 5737 5734 5734 5734 5732 5731 5730 5730 5730 5729 5728 5727 5726 5725
5779 5779 5779 5778 5778 5778 5778 5779 5779 5779 5779 5779 5780 5780 5779 5779 5779 5778 5778 5778 5778 5778 5777 5777 5777 5776 5776 5775 5774 5774 5773 5772 5772 5771 5770 5770 5769 5768 5767 5766 5766 5765 5764 5762 5761 5760 5759 5758 5757 5756 5755 5755 5753 5752 5751 5750 5749 5748 5747 5747 5746 5745 5744 5743 5742 5741 5740 5738 5737 5737 5736 5736 5734 5733 5733 5731 5730 5729 5728 5726 5725 5725 5725 5725 5724 5723 5722 5720
5779 5779 5778 5778 5778 5778 5778 5778 5778 5778 5779 5779 5779 5779 5778 5778 5778 5778 5778 5777 5777 5777 5777 5776 5776 5775 5775 5774 5773 5773 5772 5771 5771 5770 5769 5769 5768 5767 5766 5765 5764 5763 5762 5761 5760 5759 5758 5757 5755 5754 5753 5752 5751 5750 5749 5748 5747 5746 5745 5744 5743 5742 5741 5740 5739 5738 5737 5735 5734 5733 5733 5733 5731 5729 5729 5727 5726 5725 5724 5723 5721 5720 5720 5719 5719 5718 5717 5716
5779 5778 5778 5777 5777 5777 5778 5778 5778 5779 5779 5778 5778 5777 5777 5777 5777 5777 5777 5776 5776 5776 5776 5775 5775 5774 5774 5773 5772 5771 5771 5770 5769 5769 5768 5768 5767 5766 5765 5764 5763 5762 5760 5759 5758 5757 5755 5754 5753 5751 5750 5749 5748 5747 5746 5745 5744 5742 5741 5740 5739 5738 5738 5737 5735 5734 5733 5731 5730 5729 5728 5729 5727 5725 5724 5722 5721 5720 5719 5719 5717 5716 5715 5714 5714 5713 5712 5711
5778 5778 5778 5777 5777 5777 5777 5778 5778 5778 5778 5777 5777 5777 5777 5776 5776 5776 5776 5776 5776 5775 5775 5774 5774 5773 5773 5772 5771 5771 5770 5769 5769 5768 5767 5766 5765 5764 5763 5762 5761 5759 5758 5757 5755 5754 5753 5751 5750 5749 5747 5746 5745 5744 5743 5742 5740 5739 5738 5737 5735 5734 5733 5733 5732 5731 5730 5728 5727 5725 5723 5724 5723 5721 5720 5718 5717 5716 5715 5714 5713 5712 5711 5710 5709 5708 5708 5707
5778 5778 5778 5777 5777 5777 5777 5778 5778 5777 5777 5777 5776 5776 5776 5776 5775 5775 5775 5775 5775 5774 5774 5774 5773 5773 5772 5772 5771 5770 5770 5769 5768 5767 5766 5765 5763 5762 5761 5759 5758 5757 5755 5754 5752 5751 5750 5749 5747 5746 5744 5743 5742 5741 5740 5738 5737 5735 5734 5733 5732 5730 5729 5729 5728 5727 5726 5724 5723 5721 5720 5720 5718 5716 5715 5713 5712 5712 5711 5710 5709 5707 5707 5706 5705 5704 5703 5702
5778 5778 5777 5777 5777 5777 5777 5777 5777 5776 5776 5776 5776 5776 5775 5775 5775 5775 5775 5775 5774 5774 5774 5773 5773 5772 5772 5771 5771 5770 5769 5768 5767 5765 5764 5763 5761 5760 5758 5757 5755 5754 5752 5751 5749 5748 5747 5746 5744 5743 5741 5740 5739 5737 5736 5735 5734 5732 5731 5731 5729 5727 5725 5724 5723 5722 5721 5720 5719 5717 5716 5716 5714 5711 5709 5708 5707 5707 5707 5706 5704 5703 5703 5702 5701 5700 5699 5698
5778 5778 5777 5776 5776 5777 5777 5777 5776 5776 5776 5776 5775 5775 5775 5774 5774 5774 5774 5774 5774 5773 5773 5773 5772 5772 5771 5771 5770 5769 5767 5766 5765 5764 5762 5761 5759 5758 5756 5755 5753 5751 5750 5748 5747 5745 5744 5743 5741 5740 5738 5737 5736 5734 5733 5732 5730 5729 5728 5727 5726 5724 5722 5720 5719 5717 5716 5715 5714 5712 5711 5712 5711 5707 5705 5703 5703 5703 5702 5700 5699 5699 5699 5698 5697 5696 5695 5695
5777 5777 5776 5776 5776 5776 5776 5776 5776 5776 5775 5775 5775 5774 5774 5774 5774 5774 5774 5774 5773 5773 5773 5772 5772 5771 5770 5769 5768 5767 5766 5765 5764 5762 5761 5759 5758 5756 5754 5753 5751 5749 5748 5746 5744 5743 5742 5740 5739 5737 5736 5735 5733 5732 5730 5729 5727 5726 5724 5722 5721 5720 5719 5717 5715 5713 5711 5710 5710 5708 5706 5707 5706 5704 5701 5698 5698 5698 5697 5696 5695 5694 5694 5694 5694 5693 5692 5691
5777 5776 5776 5776 5776 5776 5776 5775 5775 5775 5775 5774 5774 5774 5774 5773 5773 5773 5773 5773 5773 5773 5772 5772 5771 5770 5769 5768 5767 5766 5765 5764 5762 5761 5759 5757 5756 5754 5752 5751 5749 5747 5745 5744 5742 5740 5739 5738 5736 5735 5733 5732 5731 5729 5728 5726 5724 5723 5721 5719 5717 5716 5715 5714 5712 5709 5707 5706 5706 5703 5702 5703 5702 5700 5698 5695 5694 5694 5692 5692 5692 5691 5691 5691 5690 5690 5689 5688
5777 5776 5776 5775 5775 5775 5775 5775 5774 5774 5774 5774 5774 5773 5773 5773 5773 5773 5773 5773 5773 5772 5772 5771 5770 5769 5768 5767 5766 5765 5763 5762 5761 5759 5757 5756 5754 5752 5750 5748 5746 5745 5743 5741 5739 5738 5737 5735 5733 5732 5730 5729 5727 5726 5725 5723 5721 5719 5718 5716 5714 5712 5711 5710 5708 5706 5704 5702 5703 5700 5698 5700 5698 5696 5694 5692 5690 5690 5689 5689 5689 5688 5688 5688 5687 5687 5686 5685
5776 5776 5775 5775 5775 5775 5774 5774 5773 5773 5773 5773 5773 5773 5773 5773 5773 5773 5773 5773 5772 5772 5771 5770 5769 5768 5767 5766 5765 5763 5762 5760 5759 5757 5756 5754 5752 5750 5748 5746 5744 5743 5741 5739 5737 5736 5734 5733 5731 5729 5728 5726 5725 5723 5722 5720 5718 5717 5715 5713 5711 5710 5708 5707 5705 5704 5702 5700 5700 5698 5696 5697 5695 5692 5691 5688 5688 5687 5685 5686 5686 5686 5685 5685 5685 5684 5682 5681
5776 5775 5775 5774 5774 5774 5773 5773 5773 5773 5773 5773 5773 5773 5773 5773 5773 5773 5773 5772 5772 5771 5770 5769 5768 5767 5766 5765 5763 5762 5760 5759 5757 5756 5754 5752 5750 5748 5746 5744 5742 5741 5739 5737 5735 5733 5732 5730 5729 5727 5726 5724 5723 5721 5720 5718 5717 5715 5713 5711 5709 5708 5706 5705 5703 5702 5700 5697 5697 5695 5694 5695 5693 5690 5687 5685 5685 5684 5682 5682 5682 5681 5681 5681 5681 5680 5678 5677
5775 5774 5774 5774 5773 5773 5772 5772 5772 5772 5772 5773 5773 5773 5773 5773 5773 5773 5772 5772 5771 5770 5769 5768 5767 5766 5764 5763 5762 5760 5759 5758 5756 5754 5753 5751 5749 5747 5745 5743 5741 5739 5737 5736 5734 5732 5730 5729 5727 5726 5724 5723 5721 5720 5718 5716 5715 5713 5711 5709 5708 5706 5703 5702 5701 5700 5699 5696 5694 5692 5692 5693 5691 5687 5685 5683 5682 5680 5678 5678 5677 5676 5676 5676 5675 5675 5674 5673
5774 5773 5773 5773 5772 5772 5772 5772 5772 5772 5772 5772 5773 5773 5773 5773 5773 5772 5772 5771 5770 5769 5768 5767 5766 5765 5763 5762 5761 5759 5758 5756 5755 5753 5751 5749 5747 5746 5744 5742 5740 5738 5736 5734 5732 5731 5729 5727 5726 5724 5723 5721 5720 5718 5717 5715 5713 5712 5710 5708 5706 5704 5702 5700 5698 5697 5697 5695 5693 5689 5688 5690 5689 5685 5682 5681 5680 5678 5676 5675 5674 5673 5672 5671 5671 5670 5669 5668
5773 5773 5773 5772 5772 5771 5771 5771 5771 5771 5771 5772 5772 5772 5773 5772 5772 5772 5771 5770 5769 5768 5767 5766 5765 5764 5762 5761 5760 5758 5757 5755 5754 5752 5750 5748 5746 5744 5742 5741 5739 5737 5735 5733 5732 5730 5728 5726 5725 5723 5721 5720 5718 5716 5715 5713 5711 5710 5708 5706 5704 5702 5700 5698 5696 5694 5693 5693 5690 5687 5685 5686 5686 5682 5678 5678 5677 5674 5673 5672 5671 5670 5669 5668 5667 5666 5665 5664
5772 5772 5772 5771 5771 5771 5771 5771 5771 5771 5771 5772 5772 5772 5772 5772 5771 5771 5770 5769 5768 5767 5766 5765 5764 5763 5762 5760 5759 5757 5756 5754 5752 5751 5749 5747 5745 5743 5741 5740 5738 5736 5734 5732 5730 5729 5727 5725 5723 5722 5720 5718 5717 5715 5713 5711 5709 5708 5706 5704 5702 5700 5698 5696 5694 5692 5690 5690 5687 5684 5681 5680 5681 5680 5675 5674 5672 5670 5669 5668 5667 5666 5665 5665 5664 5661 5660 5659
5771 5771 5771 5771 5771 5771 5770 5770 5770 5771 5771 5771 5771 5771 5771 5771 5771 5770 5770 5769 5767 5766 5765 5764 5763 5762 5761 5759 5758 5756 5755 5753 5751 5749 5748 5746 5744 5742 5740 5738 5736 5735 5733 5731 5729 5727 5725 5724 5722 5720 5718 5717 5715 5713 5711 5709 5707 5706 5704 5702 5699 5697 5696 5693 5691 5689 5687 5687 5685 5682 5679 5677 5678 5677 5672 5670 5668 5665 5664 5664 5664 5662 5661 5660 5659 5657 5655 5654
5771 5770 5770 5770 5770 5770 5770 5770 5770 5770 5771 5771 5771 5771 5771 5770 5770 5769 5768 5768 5766 5765 5764 5763 5762 5761 5760 5758 5757 5755 5753 5752 5750 5748 5746 5744 5743 5741 5739 5737 5735 5733 5732 5730 5728 5726 5724 5723 5721 5719 5717 5715 5713 5711 5710 5708 5706 5704 5702 5700 5697 5695 5693 5691 5689 5687 5685 5684 5682 5680 5677 5674 5675 5674 5670 5667 5664 5660 5659 5659 5658 5657 5656 5655 5654 5652 5651 5649
5770 5770 5770 5770 5770 5769 5769 5769 5769 5770 5770 5770 5770 5770 5770 5770 5769 5768 5767 5766 5765 5764 5763 5762 5761 5760 5758 5757 5755 5754 5752 5750 5748 5747 5745 5743 5741 5740 5738 5736 5734 5732 5731 5729 5727 5725 5723 5721 5720 5718 5716 5714 5712 5710 5708 5706 5704 5702 5700 5698 5695 5692 5690 5688 5686 5684 5682 5681 5679 5677 5675 5671 5671 5670 5667 5664 5660 5656 5655 5654 5652 5650 5649 5649 5648 5647 5646 5645
5769 5769 5769 5769 5769 5769 5769 5769 5769 5769 5770 5770 5770 5770 5769 5769 5768 5767 5766 5765 5764 5763 5762 5761 5760 5758 5757 5756 5754 5752 5751 5749 5747 5746 5744 5742 5741 5739 5737 5735 5734 5732 5730 5728 5726 5724 5722 5721 5719 5717 5714 5713 5710 5708 5706 5704 5702 5700 5697 5695 5693 5690 5688 5686 5685 5682 5680 5678 5676 5674 5672 5669 5668 5666 5664 5662 5657 5653 5651 5649 5647 5644 5643 5642 5641 5641 5642 5642
5769 5769 5769 5769 5768 5768 5768 5768 5769 5769 5769 5769 5769 5769 5769 5768 5767 5766 5765 5764 5763 5762 5761 5760 5758 5757 5756 5754 5753 5751 5750 5748 5747 5745 5743 5741 5740 5738 5736 5734 5733 5731 5729 5728 5726 5723 5721 5719 5717 5715 5713 5711 5709 5707 5705 5703 5701 5698 5695 5693 5691 5688 5685 5684 5682 5680 5677 5675 5673 5671 5669 5667 5665 5663 5661 5659 5655 5650 5647 5645 5642 5640 5638 5636 5635 5636 5637 5637
5768 5768 5768 5768 5768 5768 5768 5768 5768 5769 5769 5769 5769 5768 5768 5767 5766 5765 5764 5763 5762 5761 5760 5758 5757 5756 5754 5753 5752 5750 5749 5747 5746 5744 5742 5741 5739 5737 5735 5733 5731 5729 5728 5726 5724 5723 5720 5718 5716 5714 5712 5710 5707 5705 5703 5701 5699 5696 5694 5691 5688 5685 5681 5679 5678 5675 5673 5671 5669 5668 5666 5664 5664 5662 5659 5657 5653 5648 5645 5642 5639 5637 5635 5632 5631 5631 5631 5631
5767 5767 5767 5767 5767 5767 5767 5767 5768 5768 5768 5768 5768 5768 5767 5766 5765 5764 5763 5762 5761 5760 5758 5757 5756 5754 5753 5752 5750 5749 5748 5746 5744 5743 5741 5739 5738 5736 5734 5732 5730 5728 5726 5724 5722 5721 5719 5717 5715 5712 5710 5708 5705 5703 5701 5699 5696 5694 5692 5689 5686 5683 5678 5675 5674 5671 5668 5666 5666 5665 5663 5661 5661 5660 5658 5654 5650 5646 5643 5641 5638 5635 5633 5630 5628 5627 5627 5626
5766 5766 5766 5766 5766 5766 5767 5767 5767 5768 5768 5767 5767 5767 5766 5765 5764 5763 5762 5761 5760 5758 5757 5756 5754 5753 5752 5750 5749 5748 5746 5745 5743 5742 5740 5738 5737 5735 5732 5730 5728 5726 5724 5722 5720 5718 5717 5716 5713 5710 5708 5706 5703 5701 5698 5696 5694 5692 5690 5687 5684 5681 5676 5672 5670 5667 5663 5659 5660 5661 5659 5658 5658 5657 5655 5651 5647 5644 5641 5639 5637 5633 5630 5627 5625 5624 5622 5621
5766 5766 5766 5766 5766 5766 5766 5767 5767 5767 5767 5767 5766 5766 5765 5764 5763 5762 5761 5759 5758 5757 5756 5754 5753 5752 5750 5749 5748 5746 5745 5743 5742 5740 5738 5737 5735 5733 5731 5729 5727 5725 5722 5720 5718 5715 5714 5714 5711 5709 5706 5704 5701 5699 5696 5693 5690 5688 5686 5684 5681 5678 5674 5670 5665 5664 5660 5653 5652 5654 5653 5653 5654 5653 5652 5649 5645 5642 5639 5636 5633 5630 5627 5624 5622 5619 5618 5617
5765 5765 5765 5765 5765 5766 5766 5766 5766 5766 5766 5766 5765 5764 5763 5762 5761 5760 5759 5758 5757 5756 5754 5753 5752 5750 5749 5748 5746 5745 5743 5742 5740 5739 5737 5735 5733 5731 5729 5727 5725 5723 5720 5718 5715 5712 5710 5710 5709 5707 5704 5702 5699 5696 5694 5691 5687 5684 5683 5680 5677 5673 5671 5667 5662 5659 5656 5649 5644 5644 5645 5646 5648 5649 5647 5644 5642 5638 5635 5632 5629 5626 5623 5621 5619 5616 5614 5612
5764 5764 5764 5765 5765 5765 5765 5765 5765 5765 5765 5764 5764 5763 5762 5761 5760 5759 5758 5757 5756 5754 5753 5752 5750 5749 5748 5746 5745 5743 5742 5740 5738 5737 5735 5733 5731 5729 5727 5725 5723 5720 5718 5715 5712 5710 5706 5704 5705 5705 5702 5699 5697 5694 5692 5689 5685 5682 5679 5677 5674 5670 5667 5663 5659 5655 5651 5645 5638 5636 5636 5636 5640 5644 5642 5640 5638 5635 5631 5628 5625 5622 5619 5616 5614 5612 5609 5607
5764 5764 5764 5764 5764 5764 5765 5765 5764 5764 5764 5763 5763 5762 5761 5760 5758 5757 5756 5755 5754 5753 5751 5750 5749 5747 5746 5745 5743 5742 5740 5738 5736 5734 5732 5731 5729 5727 5725 5722 5720 5717 5716 5713 5710 5707 5703 5699 5700 5701 5699 5696 5694 5691 5688 5686 5683 5679 5676 5674 5671 5667 5663 5659 5656 5653 5649 5642 5635 5630 5627 5627 5633 5637 5637 5635 5632 5630 5627 5623 5621 5617 5613 5611 5609 5607 5604 5601
5763 5763 5763 5764 5764 5764 5764 5764 5764 5763 5762 5762 5761 5760 5759 5758 5757 5756 5755 5754 5752 5751 5750 5748 5747 5745 5744 5743 5741 5739 5738 5736 5734 5732 5730 5728 5726 5724 5722 5719 5717 5714 5712 5710 5707 5704 5700 5696 5694 5695 5694 5692 5690 5688 5684 5682 5679 5675 5673 5670 5667 5664 5660 5655 5652 5650 5647 5640 5635 5628 5618 5618 5628 5631 5631 5630 5627 5624 5621 5617 5614 5610 5606 5604 5602 5600 5598 5596
5762 5763 5763 5763 5763 5763 5763 5763 5762 5762 5761 5760 5760 5759 5758 5756 5755 5754 5753 5752 5751 5749 5748 5747 5745 5744 5742 5741 5739 5737 5735 5734 5732 5730 5728 5726 5723 5721 5719 5716 5713 5711 5709 5706 5704 5701 5696 5692 5689 5689 5689 5687 5686 5683 5680 5678 5675 5671 5669 5666 5663 5660 5655 5651 5646 5645 5643 5636 5633 5629 5614 5608 5620 5626 5624 5624 5621 5618 5615 5610 5606 5602 5597 5596 5594 5592 5591 5589
5762 5762 5762 5762 5763 5762 5762 5762 5761 5761 5760 5759 5758 5757 5756 5755 5754 5752 5751 5750 5749 5747 5746 5745 5743 5741 5740 5738 5736 5734 5732 5730 5729 5727 5725 5723 5721 5718 5715 5713 5710 5708 5705 5702 5700 5697 5692 5688 5684 5683 5683 5682 5680 5678 5675 5673 5669 5666 5663 5660 5658 5655 5651 5647 5641 5639 5639 5630 5627 5630 5613 5599 5611 5619 5616 5617 5616 5611 5608 5603 5598 5594 5590 5588 5587 5585 5584 5582
5762 5762 5762 5762 5762 5761 5761 5760 5760 5759 5758 5758 5757 5755 5754 5753 5752 5750 5749 5748 5747 5746 5744 5743 5741 5739 5737 5736 5734 5732 5729 5726 5725 5724 5722 5720 5718 5716 5712 5709 5706 5704 5701 5698 5695 5692 5688 5683 5680 5677 5676 5675 5674 5672 5670 5667 5664 5659 5656 5654 5652 5648 5645 5642 5636 5633 5631 5623 5622 5623 5607 5595 5605 5609 5607 5609 5608 5604 5600 5594 5589 5585 5582 5580 5579 5578 5577 5574
5761 5761 5761 5761 5761 5760 5760 5759 5758 5758 5757 5756 5755 5754 5753 5752 5750 5748 5747 5746 5745 5744 5742 5741 5739 5737 5735 5733 5730 5729 5726 5723 5721 5720 5719 5716 5714 5711 5708 5705 5703 5700 5697 5693 5690 5687 5683 5678 5675 5671 5669 5666 5665 5665 5664 5661 5656 5651 5648 5647 5643 5641 5638 5633 5630 5626 5620 5617 5619 5611 5596 5595 5603 5602 5598 5600 5598 5595 5590 5583 5579 5577 5574 5572 5570 5570 5568 5566
5760 5760 5760 5760 5759 5759 5758 5758 5757 5756 5755 5754 5753 5752 5751 5749 5748 5746 5745 5744 5742 5741 5740 5739 5737 5735 5732 5729 5727 5725 5723 5720 5717 5715 5714 5712 5709 5706 5703 5701 5698 5695 5692 5688 5685 5682 5677 5673 5670 5668 5664 5659 5657 5657 5656 5653 5649 5643 5640 5638 5634 5633 5631 5626 5623 5617 5609 5611 5613 5600 5589 5593 5599 5596 5593 5592 5589 5586 5580 5573 5570 5567 5564 5563 5562 5561 5559 5556
5760 5760 5759 5759 5758 5757 5757 5756 5756 5754 5753 5752 5752 5750 5748 5747 5746 5744 5743 5742 5740 5738 5737 5736 5734 5732 5729 5726 5723 5721 5720 5717 5713 5710 5709 5706 5703 5700 5698 5695 5693 5690 5686 5683 5679 5675 5671 5667 5664 5663 5660 5655 5651 5651 5649 5645 5641 5636 5633 5630 5626 5624 5623 5620 5615 5608 5603 5604 5600 5593 5589 5587 5588 5591 5589 5584 5580 5576 5571 5567 5562 5559 5556 5555 5553 5551 5549 5546
5759 5758 5758 5757 5757 5756 5755 5755 5754 5753 5752 5751 5750 5748 5746 5745 5743 5741 5740 5739 5738 5736 5734 5733 5732 5729 5724 5721 5719 5717 5717 5714 5709 5706 5704 5701 5698 5695 5693 5690 5688 5684 5680 5677 5672 5668 5664 5660 5658 5656 5652 5649 5646 5645 5643 5638 5633 5629 5625 5622 5619 5616 5615 5612 5606 5601 5599 5593 5585 5588 5591 5581 5576 5582 5581 5575 5570 5565 5561 5558 5554 5551 5550 5547 5545 5542 5540 5537
5758 5757 5757 5756 5755 5754 5754 5753 5752 5751 5749 5748 5748 5746 5744 5743 5741 5739 5738 5737 5736 5733 5730 5729 5729 5724 5720 5718 5715 5713 5712 5709 5704 5701 5698 5695 5692 5690 5688 5685 5682 5678 5674 5670 5666 5662 5655 5652 5652 5648 5643 5642 5640 5636 5635 5630 5624 5621 5618 5614 5611 5610 5608 5603 5597 5595 5593 5582 5574 5581 5583 5573 5570 5573 5571 5566 5561 5555 5553 5550 5545 5543 5542 5539 5537 5535 5532 5529
5757 5756 5756 5755 5754 5753 5752 5751 5750 5749 5747 5746 5745 5744 5742 5741 5739 5736 5734 5733 5732 5730 5727 5726 5724 5720 5716 5714 5711 5709 5708 5703 5698 5696 5693 5689 5686 5683 5681 5678 5675 5671 5667 5662 5658 5654 5647 5643 5644 5639 5634 5635 5633 5629 5626 5621 5615 5613 5610 5606 5604 5603 5601 5594 5589 5589 5584 5574 5570 5572 5568 5566 5568 5565 5558 5556 5552 5547 5545 5542 5538 5535 5532 5530 5528 5525 5522 5519
5756 5755 5754 5753 5752 5751 5750 5749 5748 5747 5745 5743 5742 5741 5740 5738 5736 5733 5731 5729 5728 5726 5723 5721 5719 5715 5712 5710 5706 5704 5702 5697 5693 5691 5688 5683 5680 5678 5674 5671 5668 5664 5659 5655 5651 5645 5638 5634 5634 5630 5623 5624 5626 5622 5617 5611 5606 5603 5600 5597 5597 5595 5591 5585 5581 5579 5574 5566 5564 5562 5555 5557 5561 5554 5546 5544 5543 5539 5536 5532 5529 5526 5523 5520 5517 5514 5511 5508
5754 5753 5753 5752 5750 5749 5748 5747 5746 5744 5743 5741 5739 5738 5736 5735 5732 5730 5728 5726 5724 5721 5718 5716 5714 5711 5708 5705 5702 5699 5697 5692 5689 5686 5683 5677 5674 5672 5667 5664 5661 5655 5651 5648 5642 5637 5630 5625 5625 5620 5611 5612 5616 5612 5607 5603 5597 5592 5590 5590 5589 5584 5578 5576 5573 5567 5561 5556 5554 5551 5547 5545 5546 5543 5538 5536 5533 5530 5527 5522 5518 5515 5511 5508 5505 5503 5500 5497
5753 5752 5751 5750 5749 5747 5746 5745 5743 5741 5740 5738 5737 5735 5733 5731 5729 5726 5724 5722 5720 5717 5714 5711 5708 5705 5703 5700 5697 5694 5691 5687 5684 5680 5677 5672 5668 5665 5661 5656 5652 5647 5643 5639 5633 5628 5623 5617 5615 5610 5600 5601 5606 5600 5595 5592 5586 5583 5584 5582 5577 5573 5567 5564 5561 5555 5550 5546 5542 5539 5537 5533 5531 5530 5529 5527 5523 5520 5517 5512 5507 5503 5500 5497 5494 5491 5488 5486